User: anonymous   Login
Location: ??????
(42.0089°N, 44.3281°E)
Time: 16:38:38
(UTC+00:00)
Language:

Cosmos 2251 Rocket - Orbit

View from above orbital plane
View from above orbital plane
View from above satellite
View from above satellite

Ground track
Ground track

The orbit data is extracted from the following two-line orbital elements,

1 22676U 93036B   22018.89079546  .00000040  00000-0  23648-4 0  9996
2 22676  74.0435 355.0571 0019488 328.0693  31.9277 14.34069890495376
Epoch (UTC): 18 January 2022 21:22:44
Eccentricity: 0.0019488
inclination: 74.0435°
perigee height: 764 km
apogee height: 792 km
right ascension of ascending node: 355.0571°
argument of perigee: 328.0693°
revolutions per day: 14.34069890
mean anomaly at epoch: 31.9277°
orbit number at epoch: 49537

The dashed part of the orbit path shows where the satellite is in the earth's shadow,  

DLR